User: anonymous   Login
Location: Caltech
(34.1382°N, 118.1253°W)
Time: 13:10:49
(UTC-08:00)
Language:

NOSS 3-2 (A) - Orbit

View from above orbital plane
View from above orbital plane
View from above satellite
View from above satellite

Ground track
Ground track

The orbit data is extracted from the following two-line orbital elements,

1 28095U 03054A   16028.22467392 0.00000000  00000-0  00000-0 0    01
2 28095  63.4304 163.5657 0262000 358.2163   1.7837 13.41328976    07
Epoch (UTC): 28 January 2016 05:23:31
Eccentricity: 0.0262000
inclination: 63.4304°
perigee height: 908 km
apogee height: 1300 km
right ascension of ascending node: 163.5657°
argument of perigee: 358.2163°
revolutions per day: 13.41328976
mean anomaly at epoch: 1.7837°
orbit number at epoch: 0

The dashed part of the orbit path shows where the satellite is in the earth's shadow,  

DLR